St. Johns, AZ

8:28 PM MST on July 23, 2017 (GMT -0700)
Saint Johns Industrial

Weather History for KSJN - January, 2014

Change the Weather History Date:

Thursday, January 9, 2014

  Actual Average (KLSB) Record (KLSB)
Temperature  
Mean Temperature 30 °F -  
Max Temperature 39 °F 56 °F 60 °F (2013)
Min Temperature 21 °F 23 °F 21 °F (2013)
Degree Days  
Heating Degree Days 35    
Moisture  
Dew Point 10 °F    
Average Humidity 40    
Maximum Humidity 65    
Minimum Humidity 16    
Precipitation  
Precipitation 0.00 in - - ()
Sea Level Pressure  
Sea Level Pressure 30.02 in    
Wind  
Wind Speed 4 mph (WSW)    
Max Wind Speed 15 mph    
Max Gust Speed -    
Visibility 10 miles    
Events      
Averages and records for this station are not official NWS values.
T = Trace of Precipitation, MM = Missing Value Source: NWS Daily Summary

Daily Weather History Graph

Daily Weather History Graph

Search for Another Location

Airport or City:

Trip Planner

Search our weather history database for the weather conditions in past years. The results will help you decide how hot, cold, wet, or windy it might be!

Date:

Astronomy

Jan. 09, 2014 Rise Set
Actual Time 7:24 AM MST 5:24 PM MST
Civil Twilight 6:57 AM MST 5:52 PM MST
Nautical Twilight 6:26 AM MST 6:23 PM MST
Astronomical Twilight 5:55 AM MST 6:53 PM MST
Moon 12:48 PM MST (1/9) 1:41 AM MST (1/9)
Length of Visible Light 10h 55m
Length of Day
10h 00m
Waxing Gibbous, 66% of the Moon is Illuminated
Jan 9
Waxing Gibbous
Jan 15
Full
Jan 23
Last Quarter
Jan 30
New
Feb 6
First Quarter

Hourly Weather History & Observations

Time (MST) Temp. Windchill Dew Point Humidity Pressure Visibility Wind Dir Wind Speed Gust Speed Precip Events Conditions
12:54 AM 28.0 °F 24.2 °F 10.9 °F 49% 30.04 in 10.0 mi SE 3.5 mph - N/A   Clear
1:54 AM 21.0 °F - 8.1 °F 57% 30.06 in 10.0 mi Calm Calm - N/A   Clear
2:54 AM 19.0 °F - 6.1 °F 57% 30.08 in 10.0 mi Calm Calm - N/A   Clear
3:54 AM 18.0 °F - 7.0 °F 62% 30.07 in 7.0 mi Calm Calm - N/A   Clear
4:54 AM 19.9 °F - 8.1 °F 60% 30.07 in 10.0 mi Calm Calm - N/A   Clear
5:54 AM 18.0 °F - 7.0 °F 62% 30.09 in 10.0 mi Calm Calm - N/A   Clear
6:54 AM 18.0 °F - 8.1 °F 65% 30.12 in 10.0 mi Calm Calm - N/A   Clear
7:54 AM 18.0 °F - 8.1 °F 65% 30.13 in 10.0 mi Calm Calm - N/A   Clear
8:54 AM 24.1 °F 19.7 °F 10.0 °F 55% 30.11 in 10.0 mi NNW 3.5 mph - N/A   Clear
9:54 AM 32.0 °F - 12.0 °F 44% 30.09 in 10.0 mi Calm Calm - N/A   Partly Cloudy
10:54 AM 37.0 °F - 12.9 °F 37% 30.04 in 10.0 mi Calm Calm - N/A   Clear
11:54 AM 42.1 °F 39.2 °F 14.0 °F 32% 30.01 in 10.0 mi NNW 4.6 mph - N/A   Clear
12:54 PM 46.0 °F - 12.0 °F 25% 29.97 in 10.0 mi Calm Calm - N/A   Clear
1:54 PM 48.9 °F - 12.0 °F 23% 29.95 in 10.0 mi Calm Calm - N/A   Clear
2:54 PM 54.0 °F - 10.9 °F 18% 29.91 in 10.0 mi Variable 5.8 mph - N/A   Clear
4:54 PM 51.1 °F - 6.1 °F 16% 29.93 in 10.0 mi WSW 11.5 mph - N/A   Clear
5:54 PM 46.9 °F - 10.0 °F 22% 29.96 in 10.0 mi WSW 15.0 mph - N/A   Clear
6:54 PM 44.1 °F 37.7 °F 10.9 °F 26% 29.96 in 10.0 mi SW 12.7 mph - N/A   Scattered Clouds
7:54 PM 41.0 °F 34.3 °F 10.9 °F 29% 29.99 in 10.0 mi SW 11.5 mph - N/A   Clear
8:54 PM 39.9 °F 32.5 °F 10.9 °F 31% 29.99 in 10.0 mi WSW 12.7 mph - N/A   Clear
9:54 PM 37.9 °F 29.2 °F 10.9 °F 33% 29.96 in 10.0 mi SW 15.0 mph - N/A   Clear
10:54 PM 39.0 °F 31.0 °F 10.9 °F 32% 29.96 in 10.0 mi WSW 13.8 mph - N/A   Clear
11:54 PM 37.9 °F 29.2 °F 12.0 °F 35% 29.95 in 10.0 mi WSW 15.0 mph - N/A   Clear